CDT,Max TemperatureF,Mean TemperatureF,Min TemperatureF,Max Dew PointF,MeanDew PointF,Min DewpointF,Max Humidity, Mean Humidity, Min Humidity, Max Sea Level PressureIn, Mean Sea Level PressureIn, Min Sea Level PressureIn, Max VisibilityMiles, Mean VisibilityMiles, Min VisibilityMiles, Max Wind SpeedMPH, Mean Wind SpeedMPH, Max Gust SpeedMPH,PrecipitationIn, CloudCover, Events, WindDirDegrees
2013-9-1,70,61,51,62,56,50,90,76,61,30.04,29.89,29.77,10,10,10,21,10,26,0.00,5,,322
2013-9-2,70,59,47,51,49,46,93,70,47,30.15,30.09,30.04,10,10,10,13,4,18,0.00,4,,356
2013-9-3,79,60,41,57,47,41,100,71,42,30.13,30.07,30.02,10,6,0,12,4,18,0.00,2,Fog,221
2013-9-4,85,69,53,62,58,53,100,72,43,30.19,30.12,30.05,10,10,8,14,3,20,0.00,0,,54
2013-9-5,84,70,56,65,56,49,93,64,35,30.25,30.19,30.10,10,10,9,14,6,16,0.00,0,,124
2013-9-6,91,79,66,68,66,63,100,71,41,30.10,29.97,29.87,10,9,4,21,9,25,0.00,1,,166
2013-9-7,92,78,64,68,65,55,100,71,41,30.06,29.94,29.87,10,9,3,18,6,24,0.00,1,,40
2013-9-8,65,63,60,59,55,50,90,79,67,30.09,30.03,29.91,10,10,8,14,6,18,0.02,6,Rain,78
2013-9-9,89,76,62,71,66,58,100,78,55,29.91,29.75,29.64,10,5,1,16,7,38,0.04,6,Rain-Thunderstorm,131
2013-9-10,85,72,59,66,62,55,100,69,37,30.00,29.89,29.80,10,10,7,22,8,28,0.04,2,Rain,269
2013-9-11,84,71,57,59,52,46,100,64,28,30.11,30.04,30.00,10,10,7,21,9,25,0.00,0,,293
2013-9-12,74,61,47,54,46,42,93,64,35,30.28,30.22,30.12,10,10,10,18,7,25,0.00,1,,346
2013-9-13,70,54,38,47,41,37,100,67,33,30.32,30.24,30.10,10,9,1,10,4,14,0.00,0,,146
2013-9-14,69,57,45,56,51,42,100,74,48,30.10,29.97,29.91,10,5,1,15,5,18,1.23,6,Rain,117
2013-9-15,65,55,45,55,52,44,100,82,63,30.38,30.12,29.91,10,10,5,17,6,24,0.03,6,Rain,13
2013-9-16,65,51,36,45,39,34,100,69,37,30.45,30.37,30.27,10,6,0,14,5,20,0.00,0,Fog,127
2013-9-17,66,55,43,56,50,41,93,76,58,30.26,30.07,29.93,10,8,2,21,11,26,0.03,7,Rain,145
2013-9-18,73,66,58,67,63,57,100,90,79,29.94,29.80,29.69,8,3,1,17,8,23,0.04,6,Rain,141
2013-9-19,73,66,58,68,64,52,100,84,67,29.83,29.73,29.65,10,7,2,23,9,30,0.23,4,Rain-Thunderstorm,286
2013-9-20,64,56,47,53,49,44,93,73,52,29.97,29.89,29.81,10,10,10,22,11,28,0.03,6,Rain,292
2013-9-21,63,52,40,46,43,39,100,74,48,30.04,30.00,29.95,10,10,10,9,4,15,0.00,1,,336
2013-9-22,72,57,42,54,48,41,96,73,49,29.99,29.92,29.85,10,10,10,21,11,29,0.00,0,,120
2013-9-23,74,63,51,53,50,49,89,67,44,29.94,29.90,29.86,10,10,10,25,12,32,0.00,0,,144
2013-9-24,74,61,48,56,51,47,100,73,46,29.99,29.97,29.94,10,10,6,12,3,14,0.00,0,,120
2013-9-25,74,61,48,53,50,46,100,71,41,30.00,29.95,29.88,10,8,2,18,8,22,0.00,0,,122
2013-9-26,80,68,55,59,55,50,86,64,42,29.92,29.87,29.80,10,10,3,23,13,36,0.00,0,,135
2013-9-27,81,73,65,63,60,59,84,68,51,29.89,29.83,29.76,10,10,7,24,14,31,0.02,3,Rain,146
2013-9-28,72,58,44,63,53,42,93,77,61,29.95,29.74,29.59,10,8,1,28,13,35,0.16,6,Rain,228
2013-9-29,75,57,39,48,43,38,93,62,31,29.97,29.88,29.75,10,10,10,18,9,24,0.00,0,,158
2013-9-30,77,66,54,55,48,43,72,55,38,29.74,29.64,29.59,10,10,10,18,11,24,0.00,0,,168